Data No.,UTC Date,UTC Time,Latitude,Longitude,Course(deg),Temp(degC),Sal(psu)
21,2011/4/3,4:33:00,00-34.6500N,118-03.9300E,89,29.36,30.785
22,2011/4/3,4:34:00,00-34.6500N,118-04.1800E,89,29.358,30.8317
23,2011/4/3,4:35:00,00-34.6600N,118-04.4100E,89,29.357,30.835
24,2011/4/3,4:36:00,00-34.6600N,118-04.6700E,88,29.364,30.7923
25,2011/4/3,4:37:00,00-34.6700N,118-04.9200E,88,29.367,30.7465
26,2011/4/3,4:38:00,00-34.6700N,118-05.1600E,91,29.378,30.6934
27,2011/4/3,4:39:00,00-34.6600N,118-05.3900E,94,29.384,30.6759
28,2011/4/3,4:40:00,00-34.6400N,118-05.6300E,93,29.383,30.6162
29,2011/4/3,4:41:00,00-34.6200N,118-05.8700E,93,29.373,30.6244
30,2011/4/3,4:42:00,00-34.6100N,118-06.1100E,93,29.369,30.6039
31,2011/4/3,4:43:00,00-34.5900N,118-06.3500E,93,29.365,30.6132
32,2011/4/3,4:44:00,00-34.5800N,118-06.5900E,93,29.371,30.6438
33,2011/4/3,4:45:00,00-34.5600N,118-06.8300E,93,29.36,30.6697
34,2011/4/3,4:46:00,00-34.5500N,118-07.0700E,93,29.349,30.7206
35,2011/4/3,4:47:00,00-34.5300N,118-07.3200E,93,29.349,30.7257
36,2011/4/3,4:48:00,00-34.5200N,118-07.5600E,94,29.371,30.7177
37,2011/4/3,4:49:00,00-34.5000N,118-07.8000E,94,29.386,30.7052
38,2011/4/3,4:50:00,00-34.4800N,118-08.0400E,94,29.378,30.7418
39,2011/4/3,4:51:00,00-34.4600N,118-08.2900E,94,29.462,30.7848
40,2011/4/3,4:52:00,00-34.4400N,118-08.5300E,95,29.436,30.7676
41,2011/4/3,4:53:00,00-34.4200N,118-08.7700E,93,29.401,30.764
42,2011/4/3,4:54:00,00-34.4100N,118-09.0100E,89,29.405,30.793
43,2011/4/3,4:55:00,00-34.4300N,118-09.2600E,86,29.403,30.7788
44,2011/4/3,4:56:00,00-34.4400N,118-09.5000E,87,29.394,30.7599
45,2011/4/3,4:57:00,00-34.4500N,118-09.7500E,88,29.382,30.796
46,2011/4/3,4:58:00,00-34.4600N,118-10.0000E,87,29.394,30.8468
47,2011/4/3,4:59:00,00-34.4700N,118-10.2300E,87,29.402,30.8502
48,2011/4/3,5:00:00,00-34.4800N,118-10.4800E,87,29.402,30.8329
49,2011/4/3,5:01:00,00-34.4800N,118-10.7100E,87,29.401,30.8338
50,2011/4/3,5:02:00,00-34.5000N,118-10.9600E,87,29.409,30.8543
51,2011/4/3,5:03:00,00-34.5100N,118-11.1900E,87,29.416,30.8345
52,2011/4/3,5:04:00,00-34.5100N,118-11.4300E,87,29.426,30.8457
53,2011/4/3,5:05:00,00-34.5300N,118-11.6700E,87,29.421,30.7993
54,2011/4/3,5:06:00,00-34.5400N,118-11.9100E,87,29.423,30.7982
55,2011/4/3,5:07:00,00-34.5500N,118-12.1500E,87,29.421,30.8406
56,2011/4/3,5:08:00,00-34.5500N,118-12.3900E,88,29.412,30.8755
57,2011/4/3,5:09:00,00-34.5600N,118-12.6300E,88,29.385,30.8801
58,2011/4/3,5:10:00,00-34.5700N,118-12.8700E,87,29.408,30.8155
59,2011/4/3,5:11:00,00-34.5800N,118-13.1200E,88,29.414,30.7537
60,2011/4/3,5:12:00,00-34.5900N,118-13.3600E,88,29.415,30.7786
61,2011/4/3,5:13:00,00-34.5900N,118-13.6000E,88,29.423,30.7963
62,2011/4/3,5:14:00,00-34.6000N,118-13.8400E,88,29.42,30.8018
63,2011/4/3,5:15:00,00-34.6100N,118-14.0800E,88,29.43,30.8035
64,2011/4/3,5:16:00,00-34.6100N,118-14.3200E,88,29.434,30.8035
65,2011/4/3,5:17:00,00-34.6200N,118-14.5600E,88,29.443,30.8173
66,2011/4/3,5:18:00,00-34.6300N,118-14.8200E,88,29.437,30.8229
67,2011/4/3,5:19:00,00-34.6400N,118-15.0600E,88,29.451,30.8463
68,2011/4/3,5:20:00,00-34.6500N,118-15.3000E,88,29.462,30.8638
69,2011/4/3,5:21:00,00-34.6500N,118-15.5400E,88,29.455,30.8761
70,2011/4/3,5:22:00,00-34.6600N,118-15.7800E,88,29.449,30.8927
71,2011/4/3,5:23:00,00-34.6700N,118-16.0200E,88,29.435,30.9259
72,2011/4/3,5:24:00,00-34.6800N,118-16.2600E,88,29.443,30.9554
73,2011/4/3,5:25:00,00-34.6900N,118-16.5000E,88,29.441,30.968
74,2011/4/3,5:26:00,00-34.7000N,118-16.7400E,87,29.426,30.9764
75,2011/4/3,5:27:00,00-34.7100N,118-16.9900E,87,29.389,30.99
76,2011/4/3,5:28:00,00-34.7000N,118-17.2200E,92,29.407,30.9976
77,2011/4/3,5:29:00,00-34.6800N,118-17.4700E,94,29.367,30.993
78,2011/4/3,5:30:00,00-34.6700N,118-17.7000E,92,29.371,30.9915
79,2011/4/3,5:31:00,00-34.6600N,118-17.9400E,92,29.382,30.9967
80,2011/4/3,5:32:00,00-34.6500N,118-18.1800E,93,29.356,31.0066
81,2011/4/3,5:33:00,00-34.6400N,118-18.4200E,92,29.342,31.027
82,2011/4/3,5:34:00,00-34.6300N,118-18.6600E,92,29.333,31.0541
83,2011/4/3,5:35:00,00-34.6200N,118-18.9000E,92,29.332,31.055
84,2011/4/3,5:36:00,00-34.6000N,118-19.1500E,92,29.34,31.0662
85,2011/4/3,5:37:00,00-34.5900N,118-19.3900E,92,29.341,31.0655
86,2011/4/3,5:38:00,00-34.5800N,118-19.6300E,92,29.341,31.0707
87,2011/4/3,5:39:00,00-34.5700N,118-19.8900E,92,29.347,31.0863
88,2011/4/3,5:40:00,00-34.5600N,118-20.1300E,92,29.403,31.1069
89,2011/4/3,5:41:00,00-34.5500N,118-20.3800E,92,29.544,31.127
90,2011/4/3,5:42:00,00-34.5400N,118-20.6200E,93,29.51,31.2257
91,2011/4/3,5:43:00,00-34.5200N,118-20.8600E,92,29.532,31.3398
92,2011/4/3,5:44:00,00-34.5200N,118-21.1000E,92,29.457,31.3972
93,2011/4/3,5:45:00,00-34.5100N,118-21.3400E,92,29.364,31.4145
94,2011/4/3,5:46:00,00-34.5000N,118-21.5800E,92,29.325,31.4686
95,2011/4/3,5:47:00,00-34.4900N,118-21.8100E,92,29.325,31.4831
96,2011/4/3,5:48:00,00-34.4800N,118-22.0600E,91,29.318,31.4904
97,2011/4/3,5:49:00,00-34.4700N,118-22.2900E,91,29.299,31.4877
98,2011/4/3,5:50:00,00-34.4600N,118-22.5300E,92,29.287,31.4842
99,2011/4/3,5:51:00,00-34.4500N,118-22.7600E,92,29.289,31.4846
100,2011/4/3,5:52:00,00-34.4500N,118-23.0000E,89,29.315,31.4848
101,2011/4/3,5:53:00,00-34.4600N,118-23.2300E,84,29.346,31.4881
102,2011/4/3,5:54:00,00-34.4900N,118-23.4600E,82,29.367,31.4953
103,2011/4/3,5:55:00,00-34.5200N,118-23.6900E,85,29.377,31.5047
104,2011/4/3,5:56:00,00-34.5300N,118-23.9200E,84,29.402,31.5033
105,2011/4/3,5:57:00,00-34.5600N,118-24.1600E,84,29.466,31.493
106,2011/4/3,5:58:00,00-34.5800N,118-24.3900E,84,29.456,31.4677
107,2011/4/3,5:59:00,00-34.6000N,118-24.6300E,84,29.479,31.4544
108,2011/4/3,6:00:00,00-34.6300N,118-24.8600E,84,29.372,31.4549
109,2011/4/3,6:01:00,00-34.6500N,118-25.0900E,83,29.363,31.4727
110,2011/4/3,6:02:00,00-34.6800N,118-25.3400E,84,29.359,31.5023
111,2011/4/3,6:03:00,00-34.7000N,118-25.5800E,84,29.337,31.5216
112,2011/4/3,6:04:00,00-34.7300N,118-25.8100E,84,29.311,31.5247
113,2011/4/3,6:05:00,00-34.7500N,118-26.0400E,84,29.3,31.5221
114,2011/4/3,6:06:00,00-34.7700N,118-26.2800E,84,29.29,31.5196
115,2011/4/3,6:07:00,00-34.8000N,118-26.5100E,84,29.315,31.518
116,2011/4/3,6:08:00,00-34.8200N,118-26.7500E,84,29.311,31.5297
117,2011/4/3,6:09:00,00-34.8400N,118-26.9900E,84,29.329,31.5373
118,2011/4/3,6:10:00,00-34.8700N,118-27.2200E,83,29.337,31.545
119,2011/4/3,6:11:00,00-34.8900N,118-27.4600E,84,29.343,31.5553
120,2011/4/3,6:12:00,00-34.9200N,118-27.6900E,84,29.33,31.5609
121,2011/4/3,6:13:00,00-34.9400N,118-27.9200E,84,29.327,31.5657
122,2011/4/3,6:14:00,00-34.9700N,118-28.1600E,83,29.303,31.5645
123,2011/4/3,6:15:00,00-34.9900N,118-28.4000E,83,29.3,31.5657
124,2011/4/3,6:16:00,00-35.0400N,118-28.6300E,76,29.344,31.5635
125,2011/4/3,6:17:00,00-35.1000N,118-28.8500E,73,29.353,31.5636
126,2011/4/3,6:18:00,00-35.1700N,118-29.0800E,75,29.338,31.5647
127,2011/4/3,6:19:00,00-35.2200N,118-29.3100E,76,29.309,31.5667
128,2011/4/3,6:20:00,00-35.2700N,118-29.5300E,75,29.345,31.5694
129,2011/4/3,6:21:00,00-35.3400N,118-29.7500E,74,29.317,31.5611
130,2011/4/3,6:22:00,00-35.4000N,118-29.9900E,75,29.332,31.5528
131,2011/4/3,6:23:00,00-35.4500N,118-30.2300E,78,29.439,31.5456
132,2011/4/3,6:24:00,00-35.5000N,118-30.4600E,78,29.457,31.4802
133,2011/4/3,6:25:00,00-35.5500N,118-30.6900E,76,29.48,31.4216
134,2011/4/3,6:26:00,00-35.6100N,118-30.9200E,76,29.45,31.2688
135,2011/4/3,6:27:00,00-35.6700N,118-31.1500E,76,29.434,31.2108
136,2011/4/3,6:28:00,00-35.7200N,118-31.3800E,77,29.373,31.2623
137,2011/4/3,6:29:00,00-35.7700N,118-31.6000E,77,29.322,31.2253
138,2011/4/3,6:30:00,00-35.8200N,118-31.8300E,76,29.295,31.156
139,2011/4/3,6:31:00,00-35.8800N,118-32.0600E,76,29.282,31.154
140,2011/4/3,6:32:00,00-35.9300N,118-32.2900E,77,29.265,31.2087
141,2011/4/3,6:33:00,00-35.9800N,118-32.5200E,76,29.268,31.2404
142,2011/4/3,6:34:00,00-36.0400N,118-32.7500E,76,29.26,31.2343
143,2011/4/3,6:35:00,00-36.1000N,118-32.9800E,76,29.27,31.2227
144,2011/4/3,6:36:00,00-36.1500N,118-33.2200E,78,29.267,31.256
145,2011/4/3,6:37:00,00-36.2000N,118-33.4600E,78,29.245,31.296
146,2011/4/3,6:38:00,00-36.2500N,118-33.7000E,76,29.264,31.2851
147,2011/4/3,6:39:00,00-36.3100N,118-33.9300E,75,29.264,31.2055
148,2011/4/3,6:40:00,00-36.3600N,118-34.1600E,76,29.266,31.169
149,2011/4/3,6:41:00,00-36.4200N,118-34.3900E,76,29.273,31.1811
150,2011/4/3,6:42:00,00-36.4700N,118-34.6200E,76,29.258,31.1947
151,2011/4/3,6:43:00,00-36.5300N,118-34.8600E,77,29.275,31.2236
152,2011/4/3,6:44:00,00-36.5800N,118-35.0900E,77,29.286,31.2103
153,2011/4/3,6:45:00,00-36.6400N,118-35.3300E,77,29.299,31.1642
154,2011/4/3,6:46:00,00-36.6900N,118-35.5500E,77,29.307,31.1428
155,2011/4/3,6:47:00,00-36.7400N,118-35.8000E,77,29.295,31.1326
156,2011/4/3,6:48:00,00-36.8000N,118-36.0400E,76,29.311,31.1626
157,2011/4/3,6:49:00,00-36.8500N,118-36.2700E,76,29.288,31.1777
158,2011/4/3,6:50:00,00-36.9100N,118-36.5100E,77,29.277,31.1949
159,2011/4/3,6:51:00,00-36.9600N,118-36.7400E,77,29.341,31.2415
160,2011/4/3,6:52:00,00-37.0100N,118-36.9800E,77,29.4,31.1558
161,2011/4/3,6:53:00,00-37.0700N,118-37.2100E,76,29.413,31.0374
162,2011/4/3,6:54:00,00-37.1200N,118-37.4400E,77,29.392,31.029
163,2011/4/3,6:55:00,00-37.1700N,118-37.6800E,77,29.421,31.0758
164,2011/4/3,6:56:00,00-37.2200N,118-37.9200E,77,29.423,31.081
165,2011/4/3,6:57:00,00-37.2800N,118-38.1500E,77,29.387,31.0304
166,2011/4/3,6:58:00,00-37.3300N,118-38.3900E,76,29.369,30.9673
167,2011/4/3,6:59:00,00-37.3900N,118-38.6200E,76,29.345,30.949
168,2011/4/3,7:00:00,00-37.4400N,118-38.8500E,78,29.341,30.9692
169,2011/4/3,7:01:00,00-37.4900N,118-39.0900E,78,29.373,30.9993
170,2011/4/3,7:02:00,00-37.5400N,118-39.3300E,77,29.381,30.9942
171,2011/4/3,7:03:00,00-37.5900N,118-39.5600E,77,29.36,30.9658
172,2011/4/3,7:04:00,00-37.6400N,118-39.8000E,76,29.367,30.876
173,2011/4/3,7:05:00,00-37.7000N,118-40.0300E,77,29.357,30.8558
174,2011/4/3,7:06:00,00-37.7500N,118-40.2700E,78,29.335,30.9279
175,2011/4/3,7:07:00,00-37.8000N,118-40.5200E,79,29.326,31.0388
176,2011/4/3,7:08:00,00-37.8500N,118-40.7800E,77,29.344,31.0867
177,2011/4/3,7:09:00,00-37.9100N,118-41.0100E,76,29.325,31.0087
178,2011/4/3,7:10:00,00-37.9700N,118-41.2600E,76,29.292,31.0156
179,2011/4/3,7:11:00,00-38.0200N,118-41.4900E,78,29.274,31.1285
180,2011/4/3,7:12:00,00-38.0700N,118-41.7400E,78,29.275,31.1987
181,2011/4/3,7:13:00,00-38.1200N,118-41.9800E,77,29.307,31.1832
182,2011/4/3,7:14:00,00-38.1800N,118-42.2200E,76,29.352,31.0447
183,2011/4/3,7:15:00,00-38.2400N,118-42.4600E,76,29.369,30.9465
184,2011/4/3,7:16:00,00-38.2900N,118-42.7100E,77,29.363,30.9175
185,2011/4/3,7:17:00,00-38.3500N,118-42.9400E,77,29.356,30.932
186,2011/4/3,7:18:00,00-38.4000N,118-43.1800E,77,29.337,30.9292
187,2011/4/3,7:19:00,00-38.4600N,118-43.4300E,76,29.309,30.9435
188,2011/4/3,7:20:00,00-38.5200N,118-43.6700E,76,29.309,31.0235
189,2011/4/3,7:21:00,00-38.5700N,118-43.9100E,77,29.289,31.0671
190,2011/4/3,7:22:00,00-38.6200N,118-44.1500E,77,29.329,31.0959
191,2011/4/3,7:23:00,00-38.6800N,118-44.4000E,77,29.359,31.0411
192,2011/4/3,7:24:00,00-38.7300N,118-44.6400E,76,29.371,30.9674
193,2011/4/3,7:25:00,00-38.7900N,118-44.8800E,76,29.371,30.9287
194,2011/4/3,7:26:00,00-38.8500N,118-45.1300E,76,29.338,30.9146
195,2011/4/3,7:27:00,00-38.9000N,118-45.3600E,77,29.323,30.9924
196,2011/4/3,7:28:00,00-38.9500N,118-45.6100E,78,29.326,31.0555
197,2011/4/3,7:29:00,00-39.0100N,118-45.8700E,76,29.336,31.0689
198,2011/4/3,7:30:00,00-39.0700N,118-46.1100E,75,29.324,31.0218
199,2011/4/3,7:31:00,00-39.1300N,118-46.3500E,76,29.299,31.0289
200,2011/4/3,7:32:00,00-39.1900N,118-46.6000E,77,29.297,31.0535
201,2011/4/3,7:33:00,00-39.2400N,118-46.8400E,77,29.299,31.054
202,2011/4/3,7:34:00,00-39.3000N,118-47.0800E,76,29.323,31.0419
203,2011/4/3,7:35:00,00-39.3600N,118-47.3200E,76,29.321,30.9984
204,2011/4/3,7:36:00,00-39.4200N,118-47.5700E,76,29.293,30.9788
205,2011/4/3,7:37:00,00-39.4800N,118-47.8100E,76,29.254,31.0026
206,2011/4/3,7:38:00,00-39.5300N,118-48.0500E,77,29.255,31.0611
207,2011/4/3,7:39:00,00-39.5900N,118-48.2900E,77,29.284,31.0618
208,2011/4/3,7:40:00,00-39.6500N,118-48.5300E,76,29.303,31.0332
209,2011/4/3,7:41:00,00-39.7100N,118-48.7800E,76,29.278,30.9989
210,2011/4/3,7:42:00,00-39.7700N,118-49.0200E,76,29.275,30.9974
211,2011/4/3,7:43:00,00-39.8200N,118-49.2600E,76,29.256,31.0105
212,2011/4/3,7:44:00,00-39.8800N,118-49.5000E,76,29.284,31.0335
213,2011/4/3,7:45:00,00-39.9400N,118-49.7400E,76,29.305,31.0327
214,2011/4/3,7:46:00,00-40.0000N,118-49.9800E,76,29.293,30.9928
215,2011/4/3,7:47:00,00-40.0600N,118-50.2400E,77,29.3,30.9842
216,2011/4/3,7:48:00,00-40.1100N,118-50.4800E,76,29.305,30.9947
217,2011/4/3,7:49:00,00-40.1700N,118-50.7200E,76,29.304,30.9878
218,2011/4/3,7:50:00,00-40.2400N,118-50.9800E,75,29.293,30.9853
219,2011/4/3,7:51:00,00-40.3000N,118-51.2200E,76,29.254,31.0213
220,2011/4/3,7:52:00,00-40.3500N,118-51.4600E,76,29.258,31.0813
221,2011/4/3,7:53:00,00-40.4100N,118-51.7100E,76,29.229,31.1084
222,2011/4/3,7:54:00,00-40.4700N,118-51.9500E,75,29.231,31.1382
223,2011/4/3,7:55:00,00-40.5400N,118-52.1900E,72,29.264,31.1516
224,2011/4/3,7:56:00,00-40.6200N,118-52.4300E,73,29.251,31.1048
225,2011/4/3,7:57:00,00-40.6900N,118-52.6700E,73,29.237,31.1097
226,2011/4/3,7:58:00,00-40.7600N,118-52.9000E,73,29.259,31.1354
227,2011/4/3,7:59:00,00-40.8300N,118-53.1300E,73,29.25,31.1068
228,2011/4/3,8:00:00,00-40.9000N,118-53.3700E,73,29.253,31.103
229,2011/4/3,8:01:00,00-40.9700N,118-53.6100E,72,29.228,31.0972
230,2011/4/3,8:02:00,00-41.0500N,118-53.8400E,72,29.209,31.1021
231,2011/4/3,8:03:00,00-41.1200N,118-54.0800E,72,29.206,31.1286
232,2011/4/3,8:04:00,00-41.1900N,118-54.3100E,73,29.191,31.1388
233,2011/4/3,8:05:00,00-41.2600N,118-54.5500E,73,29.19,31.1596
234,2011/4/3,8:06:00,00-41.3300N,118-54.7900E,73,29.189,31.1735
235,2011/4/3,8:07:00,00-41.4000N,118-55.0200E,73,29.194,31.1742
236,2011/4/3,8:08:00,00-41.4700N,118-55.2600E,73,29.188,31.164
237,2011/4/3,8:09:00,00-41.5400N,118-55.4900E,73,29.202,31.1607
238,2011/4/3,8:10:00,00-41.6100N,118-55.7300E,73,29.208,31.148
239,2011/4/3,8:11:00,00-41.6800N,118-55.9800E,72,29.214,31.1307
240,2011/4/3,8:12:00,00-41.7600N,118-56.2100E,73,29.211,31.1124
241,2011/4/3,8:13:00,00-41.8300N,118-56.4500E,74,29.202,31.1033
242,2011/4/3,8:14:00,00-41.8900N,118-56.6800E,73,29.223,31.1005
243,2011/4/3,8:15:00,00-41.9600N,118-56.9100E,73,29.223,31.0778
244,2011/4/3,8:16:00,00-42.0400N,118-57.1500E,73,29.213,31.0425
245,2011/4/3,8:17:00,00-42.1100N,118-57.3900E,74,29.214,31.0273
246,2011/4/3,8:18:00,00-42.1800N,118-57.6300E,73,29.221,31.0373
247,2011/4/3,8:19:00,00-42.2500N,118-57.8700E,73,29.215,31.0239
248,2011/4/3,8:20:00,00-42.3200N,118-58.1000E,73,29.207,30.984
249,2011/4/3,8:21:00,00-42.3900N,118-58.3400E,73,29.192,30.9645
250,2011/4/3,8:22:00,00-42.4600N,118-58.5800E,73,29.222,30.9858
251,2011/4/3,8:23:00,00-42.5300N,118-58.8100E,73,29.229,31.0388
252,2011/4/3,8:24:00,00-42.6000N,118-59.0500E,73,29.212,31.0922
253,2011/4/3,8:25:00,00-42.6800N,118-59.2900E,72,29.218,31.0931
254,2011/4/3,8:26:00,00-42.7500N,118-59.5300E,72,29.229,31.1026
255,2011/4/3,8:27:00,00-42.8200N,118-59.7600E,73,29.233,31.1081
256,2011/4/3,8:28:00,00-42.8900N,119-00.0000E,73,29.224,31.1307
257,2011/4/3,8:29:00,00-42.9700N,119-00.2300E,72,29.233,31.1363
258,2011/4/3,8:30:00,00-43.0400N,119-00.4700E,72,29.232,31.1473
259,2011/4/3,8:31:00,00-43.1200N,119-00.7100E,72,29.224,31.1641
260,2011/4/3,8:32:00,00-43.1900N,119-00.9400E,73,29.232,31.1716
261,2011/4/3,8:33:00,00-43.2600N,119-01.1900E,73,29.218,31.1672
262,2011/4/3,8:34:00,00-43.3400N,119-01.4300E,73,29.239,31.1788
263,2011/4/3,8:35:00,00-43.4100N,119-01.6700E,72,29.265,31.1782
264,2011/4/3,8:36:00,00-43.4900N,119-01.9000E,72,29.264,31.172
265,2011/4/3,8:37:00,00-43.5600N,119-02.1400E,72,29.271,31.1635
266,2011/4/3,8:38:00,00-43.6400N,119-02.3800E,72,29.281,31.159
267,2011/4/3,8:39:00,00-43.7100N,119-02.6200E,72,29.276,31.1665
268,2011/4/3,8:40:00,00-43.7900N,119-02.8600E,72,29.282,31.1788
269,2011/4/3,8:41:00,00-43.8700N,119-03.1000E,72,29.294,31.1643
270,2011/4/3,8:42:00,00-43.9400N,119-03.3400E,72,29.299,31.1634
271,2011/4/3,8:43:00,00-44.0200N,119-03.5800E,72,29.289,31.1366
272,2011/4/3,8:44:00,00-44.0900N,119-03.8200E,71,29.285,31.0921
273,2011/4/3,8:45:00,00-44.2100N,119-04.0200E,51,29.316,31.0135
274,2011/4/3,8:46:00,00-44.3800N,119-04.1400E,30,29.32,30.8744
275,2011/4/3,8:47:00,00-44.5700N,119-04.2200E,23,29.344,30.8424
276,2011/4/3,8:48:00,00-44.7700N,119-04.2900E,18,29.328,30.8213
277,2011/4/3,8:49:00,00-44.9700N,119-04.3600E,18,29.237,30.8306
278,2011/4/3,8:50:00,00-45.1800N,119-04.4400E,20,29.177,30.907
279,2011/4/3,8:51:00,00-45.3900N,119-04.5100E,20,29.17,31.0504
280,2011/4/3,8:52:00,00-45.6000N,119-04.5900E,19,29.194,31.0958
281,2011/4/3,8:53:00,00-45.8100N,119-04.6600E,19,29.206,31.0769
282,2011/4/3,8:54:00,00-46.0400N,119-04.7400E,18,29.187,31.0603
283,2011/4/3,8:55:00,00-46.2800N,119-04.8200E,19,29.16,31.074
284,2011/4/3,8:56:00,00-46.5100N,119-04.9000E,20,29.161,31.1184
285,2011/4/3,8:57:00,00-46.7300N,119-04.9900E,19,29.179,31.141
286,2011/4/3,8:58:00,00-46.9600N,119-05.0600E,18,29.194,31.1165
287,2011/4/3,8:59:00,00-47.1900N,119-05.1400E,17,29.181,31.0734
288,2011/4/3,9:00:00,00-47.4300N,119-05.2200E,18,29.151,31.0695
289,2011/4/3,9:01:00,00-47.6500N,119-05.3000E,20,29.147,31.0933
290,2011/4/3,9:02:00,00-47.8800N,119-05.3900E,20,29.163,31.1076
291,2011/4/3,9:03:00,00-48.1100N,119-05.4700E,18,29.2,31.0986
292,2011/4/3,9:04:00,00-48.3500N,119-05.5400E,17,29.217,31.0699
293,2011/4/3,9:05:00,00-48.5900N,119-05.6200E,19,29.198,31.0755
294,2011/4/3,9:06:00,00-48.8200N,119-05.7100E,20,29.202,31.1135
295,2011/4/3,9:07:00,00-49.0500N,119-05.7900E,19,29.225,31.1274
296,2011/4/3,9:08:00,00-49.2800N,119-05.8700E,19,29.252,31.1074
297,2011/4/3,9:09:00,00-49.5200N,119-05.9500E,18,29.263,31.0537
298,2011/4/3,9:10:00,00-49.7500N,119-06.0200E,18,29.252,31.0249
299,2011/4/3,9:11:00,00-49.9800N,119-06.1000E,19,29.255,31.0378
300,2011/4/3,9:12:00,00-50.2200N,119-06.1800E,19,29.236,31.046
301,2011/4/3,9:13:00,00-50.4500N,119-06.2700E,19,29.243,31.0699
302,2011/4/3,9:14:00,00-50.6800N,119-06.3500E,18,29.235,31.15
303,2011/4/3,9:15:00,00-50.9200N,119-06.4200E,18,29.254,31.1737
304,2011/4/3,9:16:00,00-51.1700N,119-06.5100E,19,29.251,31.1627
305,2011/4/3,9:17:00,00-51.4000N,119-06.5900E,19,29.268,31.1842
306,2011/4/3,9:18:00,00-51.6400N,119-06.6700E,18,29.26,31.1804
307,2011/4/3,9:19:00,00-51.8700N,119-06.7400E,18,29.261,31.1821
308,2011/4/3,9:20:00,00-52.1100N,119-06.8200E,18,29.266,31.1774
309,2011/4/3,9:21:00,00-52.3400N,119-06.9000E,18,29.269,31.1517
310,2011/4/3,9:22:00,00-52.5700N,119-06.9800E,18,29.273,31.1531
311,2011/4/3,9:23:00,00-52.8200N,119-07.0500E,17,29.29,31.144
312,2011/4/3,9:24:00,00-53.0500N,119-07.1300E,17,29.282,31.0974
313,2011/4/3,9:25:00,00-53.2800N,119-07.2100E,18,29.281,31.1045
314,2011/4/3,9:26:00,00-53.5100N,119-07.2900E,19,29.304,31.1072
315,2011/4/3,9:27:00,00-53.7500N,119-07.3600E,17,29.294,31.1015
316,2011/4/3,9:28:00,00-53.9800N,119-07.4400E,16,29.297,31.0934
317,2011/4/3,9:29:00,00-54.2200N,119-07.5100E,17,29.274,31.0963
318,2011/4/3,9:30:00,00-54.4500N,119-07.5800E,18,29.256,31.1292
319,2011/4/3,9:31:00,00-54.6900N,119-07.6700E,19,29.255,31.1624
320,2011/4/3,9:32:00,00-54.9200N,119-07.7400E,18,29.266,31.173
321,2011/4/3,9:33:00,00-55.1600N,119-07.8200E,16,29.27,31.1513
322,2011/4/3,9:34:00,00-55.4000N,119-07.8900E,17,29.263,31.1339
323,2011/4/3,9:35:00,00-55.6300N,119-07.9600E,18,29.242,31.1529
324,2011/4/3,9:36:00,00-55.8900N,119-08.0500E,19,29.256,31.195
325,2011/4/3,9:37:00,00-56.1300N,119-08.1300E,17,29.266,31.19
326,2011/4/3,9:38:00,00-56.3600N,119-08.2000E,16,29.274,31.1638
327,2011/4/3,9:39:00,00-56.6000N,119-08.2900E,21,29.292,31.1479
328,2011/4/3,9:40:00,00-56.8300N,119-08.3900E,23,29.284,31.1422
329,2011/4/3,9:41:00,00-57.0600N,119-08.5000E,26,29.271,31.1263
330,2011/4/3,9:42:00,00-57.2800N,119-08.6100E,28,29.242,31.134
331,2011/4/3,9:43:00,00-57.5000N,119-08.7300E,26,29.25,31.1589
332,2011/4/3,9:44:00,00-57.7300N,119-08.8400E,26,29.262,31.1618
333,2011/4/3,9:45:00,00-57.9600N,119-08.9600E,27,29.266,31.1463
334,2011/4/3,9:46:00,00-58.1800N,119-09.0800E,27,29.284,31.1476
335,2011/4/3,9:47:00,00-58.4100N,119-09.1900E,26,29.301,31.1283
336,2011/4/3,9:48:00,00-58.6400N,119-09.3000E,26,29.258,31.1035
337,2011/4/3,9:49:00,00-58.8600N,119-09.4200E,27,29.246,31.1184
338,2011/4/3,9:50:00,00-59.0900N,119-09.5400E,28,29.238,31.1385
339,2011/4/3,9:51:00,00-59.3100N,119-09.6600E,27,29.235,31.1324
340,2011/4/3,9:52:00,00-59.5500N,119-09.7500E,18,29.272,31.1133
341,2011/4/3,9:53:00,00-59.7900N,119-09.8000E,9,29.292,31.0775
342,2011/4/3,9:54:00,01-00.0200N,119-09.8200E,6,29.281,31.0465
343,2011/4/3,9:55:00,01-00.2800N,119-09.8700E,9,29.234,31.0561
344,2011/4/3,9:56:00,01-00.5200N,119-09.9100E,9,29.236,31.0874
345,2011/4/3,9:57:00,01-00.7600N,119-09.9500E,9,29.234,31.0959
346,2011/4/3,9:58:00,01-01.0100N,119-09.9900E,9,29.244,31.0981
347,2011/4/3,9:59:00,01-01.2500N,119-10.0300E,10,29.24,31.1016
348,2011/4/3,10:00:00,01-01.5000N,119-10.0700E,9,29.234,31.0998
349,2011/4/3,10:01:00,01-01.7400N,119-10.1100E,8,29.238,31.0994
350,2011/4/3,10:02:00,01-01.9900N,119-10.1500E,9,29.238,31.1009
351,2011/4/3,10:03:00,01-02.2400N,119-10.2000E,10,29.224,31.1143
352,2011/4/3,10:04:00,01-02.4900N,119-10.2400E,10,29.216,31.1323
353,2011/4/3,10:05:00,01-02.7400N,119-10.2800E,9,29.223,31.1448
354,2011/4/3,10:06:00,01-02.9800N,119-10.3200E,9,29.228,31.1463
355,2011/4/3,10:07:00,01-03.2300N,119-10.3700E,10,29.219,31.1623
356,2011/4/3,10:08:00,01-03.4800N,119-10.4100E,10,29.218,31.1837
357,2011/4/3,10:09:00,01-03.7300N,119-10.4600E,9,29.228,31.1977
358,2011/4/3,10:10:00,01-03.9800N,119-10.5000E,9,29.23,31.1988
359,2011/4/3,10:11:00,01-04.2300N,119-10.5400E,9,29.211,31.1894
360,2011/4/3,10:12:00,01-04.4800N,119-10.5800E,10,29.211,31.1952
361,2011/4/3,10:13:00,01-04.7300N,119-10.6300E,11,29.199,31.2122
362,2011/4/3,10:14:00,01-04.9800N,119-10.6800E,10,29.204,31.2193
363,2011/4/3,10:15:00,01-05.2300N,119-10.7300E,9,29.208,31.2068
364,2011/4/3,10:16:00,01-05.5000N,119-10.7700E,9,29.203,31.1879
365,2011/4/3,10:17:00,01-05.7600N,119-10.8100E,10,29.183,31.211
366,2011/4/3,10:18:00,01-06.0000N,119-10.8500E,10,29.192,31.2382
367,2011/4/3,10:19:00,01-06.2600N,119-10.9000E,8,29.182,31.2425
368,2011/4/3,10:20:00,01-06.5100N,119-10.9300E,8,29.177,31.2477
369,2011/4/3,10:21:00,01-06.7600N,119-10.9700E,9,29.162,31.2622
370,2011/4/3,10:22:00,01-07.0100N,119-11.0200E,10,29.173,31.2927
371,2011/4/3,10:23:00,01-07.2600N,119-11.0600E,9,29.183,31.3017
372,2011/4/3,10:24:00,01-07.5100N,119-11.1000E,8,29.185,31.2829
373,2011/4/3,10:25:00,01-07.7600N,119-11.1400E,8,29.159,31.2868
374,2011/4/3,10:26:00,01-08.0100N,119-11.1800E,8,29.149,31.3271
375,2011/4/3,10:27:00,01-08.2700N,119-11.2200E,8,29.145,31.3925
376,2011/4/3,10:28:00,01-08.5100N,119-11.2500E,8,29.159,31.4195
377,2011/4/3,10:29:00,01-08.7700N,119-11.2900E,8,29.123,31.4384
378,2011/4/3,10:30:00,01-09.0100N,119-11.3300E,8,29.117,31.4726
379,2011/4/3,10:31:00,01-09.2600N,119-11.3700E,9,29.132,31.5101
380,2011/4/3,10:32:00,01-09.5000N,119-11.4100E,9,29.141,31.5331
381,2011/4/3,10:33:00,01-09.7500N,119-11.4400E,8,29.149,31.5384
382,2011/4/3,10:34:00,01-10.0000N,119-11.4800E,8,29.151,31.5335
383,2011/4/3,10:35:00,01-10.2400N,119-11.5100E,8,29.148,31.5562
384,2011/4/3,10:36:00,01-10.4900N,119-11.5500E,7,29.154,31.5748
385,2011/4/3,10:37:00,01-10.7600N,119-11.5900E,8,29.14,31.5805
386,2011/4/3,10:38:00,01-11.0000N,119-11.6200E,8,29.129,31.5836
387,2011/4/3,10:39:00,01-11.2500N,119-11.6600E,7,29.107,31.5881
388,2011/4/3,10:40:00,01-11.4900N,119-11.6900E,7,29.102,31.6002
389,2011/4/3,10:41:00,01-11.7300N,119-11.7300E,8,29.101,31.6152
390,2011/4/3,10:42:00,01-11.9800N,119-11.7600E,8,29.102,31.6166